Погода в Суре

Россия / Пензенская область     53°53′16″N   45°46′09″E
темп.,
°C
ветер,
м/с
пор.,
м/с
влажн.,
%
обл.,
%
осадки,
мм/ч
давл.,
гПа
погр.,
м
19 апреля, пн
пн1900:00+6всв41075100 0.0 1021345
03:00+5всв51178100 0.0 1021439
06:00+4всв61270100 0.0 1022436
09:00+7всв71063100 0.0 1022726
12:00+9всв894994 0.0 10221097
15:00+9всв810496 0.0 10221402
18:00+8всв7106092 0.0 10221086
21:00+5в61367100 0.0 1024708
20 апреля, вт
вт2000:00+4в6136850 0.0 1024618
03:00+3в6146991 0.0 1024658
06:00+4в71469100 0.0 1024802
09:00+5вюв81456100 0.0 1024894
12:00+8вюв9124972 0.0 10241104
15:00+10вюв81248100 0.0 10221331
18:00+8вюв81451100 0.0 10211179
21:00+7вюв91752100 0.0 10201061
21 апреля, ср
ср2100:00+6вюв101953100 0.0 1017968
03:00+4юв112369100 1.1 1015877
06:00+3юв102286100 1.1 1014863
09:00+4ююв102083100 1.2 1014880
12:00+6ююв91784100 0.0 1015790
15:00+7ююв81684100 0.0 1016838
18:00+6ююв71389100 0.1 1018631
21:00+5ююв51293100 0.1 1019447
22 апреля, чт
чт2200:00+5ююв51295100 0.8 1018462
03:00+5ююв51096100 1.7 1019476
06:00+6ю51092100 0.0 1020509
09:00+7ю5986100 0.0 1021687
12:00+10ююз6877100 0.0 1021890
15:00+12ю576685 0.5 10211136
18:00+11ю477316 1.8 1022197
21:00+6ююв22925 2.1 102335
23 апреля, пт
пт2300:00+6ю22925 0.0 102316
03:00+5ю22923 0.0 102412
06:00+6ююв229223 0.0 102549
09:00+12ю34695 0.0 1024472
12:00+15ююз224722 0.0 10241801
15:00+14юз2253100 0.0 1023182
18:00+12ю2266100 0.0 102235
21:00+11ююв2269100 0.0 102215